Flag for Chile Weather past 2 weeks in Puerto Williams, Chile

Now
37 °F

Scattered clouds.


Feels Like: 35 °F
Forecast: 33 / 38 °F
Wind: 3 mph from North

Location: Ushuaia Aerodrome

Current Time: May 29, 2015 at 12:03:47 PM

Latest Report: May 29, 2015 at 11:00 AM


Visibility: N/A

Pressure: 29.03 "Hg

Humidity: 87%

Dew point: 34 °F

Location of Puerto WilliamsLocation

Historic Weather in Puerto Williams — Graph

°F

Puerto Williams temperature yesterday

Maximum temperature yesterday: 41 °F (at 12:00 PM)
Minimum temperature yesterday: 32 °F (at 5:00 AM)
Average temperature yesterday: 38 °F

Past Weeks' High & Low Weather Summary

 TemperatureHumidityPressure
High52 °F (May 18, 12:00 PM)100% (May 14, 5:00 PM)29.89 "Hg (May 14, 5:00 PM)
Low25 °F (May 26, 6:00 AM)50% (May 18, 11:00 AM)28.56 "Hg (May 22, 1:00 AM)
Average38 °F83%29.19 "Hg
* Reported May 14 11:00 AM — May 29 11:00 AM, Puerto Williams, Weather by CustomWeather, © 2015

Note: Actual official high and low records may vary slightly from our data, if they occured in-between our weather recording intervals... More about our weather records

Advertising

Puerto Williams weather history for previous 24 hours

 ConditionsComfort  
Time TempWeatherWind HumidityBarometerVisibility
11:00 AM
Fri, May 29
37 °FScattered clouds.3 mph87%29.03 "HgN/A
10:00 AM36 °FSunny.5 mph93%29.03 "Hg10 mi
9:00 AM37 °FSunny.6 mph87%29.03 "Hg10 mi
8:00 AM37 °FPassing clouds.8 mph87%29.03 "HgN/A
7:00 AM39 °FPassing clouds.5 mph81%29.03 "HgN/A
6:00 AM41 °FPassing clouds.5 mph87%29.03 "HgN/A
3:00 AM41 °FPassing clouds.7 mph87%29.06 "HgN/A
2:00 AM43 °FPassing clouds.No wind81%29.06 "HgN/A
1:00 AM43 °FPassing clouds.No wind81%29.09 "HgN/A
10:00 PM
Thu, May 28
39 °FScattered showers. Passing clouds.5 mph93%29.12 "HgN/A
9:00 PM39 °FPartly cloudy.5 mph100%29.12 "HgN/A
8:00 PM41 °FRain. Passing clouds.5 mph87%29.12 "HgN/A
7:00 PM39 °FRain. Mostly cloudy.No wind100%29.15 "HgN/A
6:00 PM41 °FPassing clouds.5 mph87%29.18 "HgN/A
5:00 PM41 °FPassing clouds.5 mph87%29.18 "HgN/A
4:00 PM41 °FDrizzle. Partly sunny.3 mph87%29.21 "HgN/A
3:00 PM41 °FDrizzle. Partly sunny.3 mph87%29.27 "HgN/A
2:00 PM41 °FDrizzle. Partly sunny.3 mph81%29.30 "HgN/A
1:00 PM41 °FPartly sunny.7 mph76%29.36 "HgN/A
12:00 PM41 °FPartly sunny.3 mph70%29.42 "HgN/A
Weather by CustomWeather, © 2015

See weather overviewHow to use our weather pages